Weather History for Abingdon, VA

Change the Weather History Date:

Tuesday, January 22, 2013

  Actual Average (KTRI) Record (KTRI)
Temperature  
Mean Temperature 23 °F 35 °F  
Max Temperature 28 °F 45 °F 73 °F (1938)
Min Temperature 18 °F 25 °F -10 °F (1970)
Degree Days  
Heating Degree Days 42 30  
Month to date heating degree days 660  
Since 1 July heating degree days 2389  
Cooling Degree Days 0 0  
Month to date cooling degree days 0  
Year to date cooling degree days 0  
Moisture  
Dew Point 3 °F    
Average Humidity 41    
Maximum Humidity 54    
Minimum Humidity 30    
Precipitation  
Precipitation 0.00 in 0.11 in 0.99 in (1962)
Month to date precipitation 2.37  
Year to date precipitation 2.37  
Snow  
Snow 0.00 in 0.20 in - ()
Month to date snowfall 3.4  
Since 1 July snowfall 6.1  
Snow Depth -    
Sea Level Pressure  
Sea Level Pressure 30.15 in    
Wind  
Wind Speed 10 mph (WNW)    
Max Wind Speed 16 mph    
Max Gust Speed 26 mph    
Visibility 10 miles    
Events      
T = Trace of Precipitation, MM = Missing Value Source: NWS Daily Summary

Daily Weather History Graph

Daily Weather History Graph

Search for Another Location

Airport:

Trip Planner

Search our weather history database for the weather conditions in past years. The results will help you decide how hot, cold, wet, or windy it might be!

Date:

Astronomy

Jan. 22, 2013 Rise Set
Actual Time 7:36 AM EST 5:43 PM EST
Civil Twilight 7:08 AM EST 6:11 PM EST
Nautical Twilight 6:37 AM EST 6:42 PM EST
Astronomical Twilight 6:06 AM EST 7:13 PM EST
Moon 2:06 PM EST (1/22) 3:56 AM EST (1/22)
Length of Visible Light 11h 02m
Length of Day
10h 06m
Waxing Gibbous, 82% of the Moon is Illuminated
Jan 22
Waxing Gibbous
Jan 26
Full
Feb 3
Last Quarter
Feb 10
New
Feb 17
First Quarter

Hourly Weather History & Observations

Time (EST) Temp. Windchill Dew Point Humidity Pressure Visibility Wind Dir Wind Speed Gust Speed Precip Events Conditions
12:15 AM 27.5 °F 16.3 °F 9.7 °F 47% 30.06 in 10.0 mi WNW 13.8 mph 20.7 mph N/A   Overcast
12:35 AM 27.3 °F 17.7 °F 8.6 °F 45% 30.06 in 10.0 mi WNW 10.4 mph 19.6 mph N/A   Overcast
12:55 AM 26.4 °F 15.5 °F 8.6 °F 47% 30.06 in 10.0 mi WNW 12.7 mph 19.6 mph N/A   Scattered Clouds
1:15 AM 25.7 °F 13.1 °F 7.2 °F 45% 30.06 in 10.0 mi WNW 16.1 mph 26.5 mph N/A   Clear
1:35 AM 25.5 °F 17.8 °F 8.6 °F 49% 30.05 in 10.0 mi WNW 6.9 mph - N/A   Scattered Clouds
1:55 AM 25.0 °F 16.3 °F 9.9 °F 53% 30.06 in 10.0 mi WNW 8.1 mph - N/A   Scattered Clouds
2:15 AM 24.4 °F 13.0 °F 9.0 °F 52% 30.07 in 10.0 mi WNW 12.7 mph 19.6 mph N/A   Clear
2:35 AM 23.9 °F 16.8 °F 8.2 °F 51% 30.08 in 10.0 mi WNW 5.8 mph - N/A   Clear
2:55 AM 23.7 °F 13.3 °F 7.7 °F 51% 30.08 in 10.0 mi WNW 10.4 mph 20.7 mph N/A   Clear
3:15 AM 23.4 °F 11.1 °F 7.3 °F 50% 30.09 in 10.0 mi WNW 13.8 mph 19.6 mph N/A   Clear
3:35 AM 23.0 °F 13.1 °F 7.0 °F 50% 30.09 in 10.0 mi WNW 9.2 mph 17.3 mph N/A   Clear
3:55 AM 22.6 °F 11.9 °F 6.3 °F 50% 30.09 in 10.0 mi WNW 10.4 mph 18.4 mph N/A   Clear
4:15 AM 22.1 °F 12.8 °F 5.9 °F 50% 30.09 in 10.0 mi WNW 8.1 mph - N/A   Clear
4:35 AM 21.6 °F 10.6 °F 5.5 °F 50% 30.09 in 10.0 mi WNW 10.4 mph - N/A   Clear
4:55 AM 21.2 °F 13.6 °F 5.2 °F 50% 30.09 in 10.0 mi WNW 5.8 mph - N/A   Clear
5:15 AM 21.0 °F 11.4 °F 5.0 °F 50% 30.09 in 10.0 mi NW 8.1 mph - N/A   Clear
5:35 AM 20.8 °F 12.1 °F 5.0 °F 50% 30.10 in 10.0 mi NW 6.9 mph - N/A   Clear
6:15 AM 19.4 °F 11.5 °F 4.5 °F 52% 30.11 in 10.0 mi NNW 5.8 mph - N/A   Clear
6:35 AM 19.0 °F 11.1 °F 4.6 °F 54% 30.11 in 10.0 mi NNW 5.8 mph - N/A   Clear
6:55 AM 18.5 °F 10.4 °F 4.5 °F 54% 30.12 in 10.0 mi NNW 5.8 mph - N/A   Clear
7:15 AM 18.5 °F 7.5 °F 2.8 °F 51% 30.14 in 10.0 mi NW 9.2 mph - N/A   Clear
7:35 AM 18.5 °F 8.4 °F 2.1 °F 49% 30.14 in 10.0 mi NW 8.1 mph - N/A   Clear
7:55 AM 18.9 °F 8.8 °F 1.2 °F 46% 30.15 in 10.0 mi NW 8.1 mph - N/A   Clear
8:15 AM 19.2 °F 8.4 °F 1.0 °F 45% 30.16 in 10.0 mi NNW 9.2 mph - N/A   Clear
8:35 AM 19.4 °F 10.4 °F 0.9 °F 45% 30.17 in 10.0 mi NNW 6.9 mph - N/A   Clear
9:15 AM 19.6 °F 8.9 °F 1.0 °F 45% 30.17 in 10.0 mi NW 9.2 mph - N/A   Clear
9:35 AM 20.1 °F 8.1 °F 1.4 °F 44% 30.18 in 10.0 mi North 11.5 mph 16.1 mph N/A   Clear
9:55 AM 20.3 °F 9.0 °F 0.7 °F 43% 30.19 in 10.0 mi North 10.4 mph - N/A   Clear
10:15 AM 21.0 °F 10.6 °F 1.6 °F 43% 30.19 in 10.0 mi NNW 9.2 mph 17.3 mph N/A   Clear
10:35 AM 21.2 °F 13.6 °F 1.9 °F 43% 30.19 in 10.0 mi North 5.8 mph - N/A   Clear
10:55 AM 22.1 °F 12.0 °F 2.5 °F 43% 30.20 in 10.0 mi NNW 9.2 mph - N/A   Clear
11:15 AM 22.8 °F 12.2 °F 3.2 °F 43% 30.20 in 10.0 mi NNW 10.4 mph 16.1 mph N/A   Clear
11:35 AM 23.7 °F 13.3 °F 1.6 °F 38% 30.20 in 10.0 mi WNW 10.4 mph 16.1 mph N/A   Clear
12:15 PM 24.8 °F 12.4 °F -0.2 °F 34% 30.19 in 10.0 mi NNW 15.0 mph - N/A   Clear
12:35 PM 25.5 °F 16.2 °F -0.4 °F 33% 30.18 in 10.0 mi NW 9.2 mph 17.3 mph N/A   Clear
12:55 PM 25.5 °F 12.9 °F -1.3 °F 31% 30.17 in 10.0 mi NW 16.1 mph 26.5 mph N/A   Clear
1:15 PM 26.1 °F 15.0 °F 0.3 °F 33% 30.17 in 10.0 mi NW 12.7 mph 19.6 mph N/A   Clear
1:35 PM 26.4 °F 15.5 °F 1.9 °F 35% 30.16 in 10.0 mi West 12.7 mph 19.6 mph N/A   Clear
2:15 PM 27.5 °F 16.8 °F 2.7 °F 35% 30.16 in 10.0 mi West 12.7 mph 21.9 mph N/A   Clear
2:35 PM 27.5 °F 17.4 °F 1.2 °F 32% 30.15 in 10.0 mi West 11.5 mph 16.1 mph N/A   Clear
3:15 PM 27.5 °F 18.0 °F 0.1 °F 31% 30.15 in 10.0 mi WNW 10.4 mph 19.6 mph N/A   Clear
3:35 PM 27.9 °F 17.8 °F 0.5 °F 31% 30.15 in 10.0 mi WNW 11.5 mph 18.4 mph N/A   Clear
3:55 PM 28.0 °F 18.1 °F 0.5 °F 31% 30.15 in 10.0 mi West 11.5 mph 17.3 mph N/A   Clear
4:15 PM 28.2 °F 19.5 °F -0.0 °F 30% 30.15 in 10.0 mi WNW 9.2 mph 16.1 mph N/A   Clear
4:35 PM 27.5 °F 15.9 °F 0.9 °F 32% 30.15 in 10.0 mi West 15.0 mph 20.7 mph N/A   Clear
4:55 PM 27.5 °F 16.8 °F 1.0 °F 32% 30.16 in 10.0 mi West 12.7 mph - N/A   Clear
5:15 PM 26.8 °F 15.4 °F 0.5 °F 32% 30.17 in 10.0 mi West 13.8 mph 20.7 mph N/A   Scattered Clouds
5:35 PM 25.7 °F 14.0 °F -0.2 °F 33% 30.17 in 10.0 mi WNW 13.8 mph 18.4 mph N/A   Scattered Clouds
5:55 PM 25.2 °F 15.7 °F -0.0 °F 34% 30.18 in 10.0 mi WNW 9.2 mph - N/A   Scattered Clouds
6:15 PM 24.8 °F 14.0 °F 0.5 °F 35% 30.17 in 10.0 mi West 11.5 mph 16.1 mph N/A   Scattered Clouds
6:35 PM 25.0 °F 17.1 °F 0.7 °F 35% 30.17 in 10.0 mi WNW 6.9 mph 16.1 mph N/A   Mostly Cloudy
6:55 PM 25.2 °F 15.1 °F 1.6 °F 36% 30.18 in 10.0 mi West 10.4 mph 17.3 mph N/A   Overcast
7:15 PM 25.5 °F 16.9 °F 1.6 °F 36% 30.18 in 10.0 mi WNW 8.1 mph - N/A   Overcast
7:35 PM 25.5 °F 14.9 °F 1.2 °F 35% 30.18 in 10.0 mi West 11.5 mph 16.1 mph N/A   Overcast
7:55 PM 25.5 °F 16.9 °F 0.9 °F 35% 30.18 in 10.0 mi WNW 8.1 mph - N/A   Overcast
8:15 PM 24.8 °F 15.3 °F 1.2 °F 36% 30.18 in 10.0 mi WNW 9.2 mph - N/A   Overcast
8:35 PM 25.2 °F 16.5 °F 0.1 °F 34% 30.17 in 10.0 mi WNW 8.1 mph - N/A   Overcast
8:55 PM 24.6 °F 15.1 °F 0.9 °F 36% 30.20 in 10.0 mi WNW 9.2 mph 16.1 mph N/A   Mostly Cloudy
9:15 PM 24.1 °F 17.0 °F 0.5 °F 36% 30.20 in 10.0 mi NW 5.8 mph - N/A   Scattered Clouds
9:35 PM 23.7 °F 14.7 °F 0.5 °F 37% 30.20 in 10.0 mi WNW 8.1 mph - N/A   Clear
9:55 PM 23.7 °F 16.6 °F 0.7 °F 37% 30.20 in 10.0 mi WNW 5.8 mph - N/A   Clear
10:15 PM 23.4 °F 15.2 °F 0.3 °F 37% 30.20 in 10.0 mi WNW 6.9 mph - N/A   Clear
10:35 PM 22.8 °F 16.7 °F 0.9 °F 39% 30.20 in 10.0 mi West 4.6 mph - N/A   Clear
11:15 PM 22.5 °F 15.1 °F 0.9 °F 39% 30.21 in 10.0 mi West 5.8 mph - N/A   Clear
11:35 PM 22.1 °F 14.7 °F 1.4 °F 41% 30.20 in 10.0 mi West 5.8 mph - N/A   Clear